| time (UTC) | temp F | wind direction | speed MPH | gust MPH | rain 1hr in | rain 24hr in | rain mn in | humidity % | barometer mb |
| 20260509141003 | 56 | 183 | 6.0 | 17.0 | 0.00 | 0.05 | 0.05 | 80 | 1014.6 |
| 20260509140003 | 56 | 160 | 11.0 | 17.0 | 0.00 | 0.05 | 0.05 | 81 | 1014.9 |
| 20260509135003 | 55 | 175 | 11.0 | 17.0 | 0.00 | 0.05 | 0.05 | 81 | 1015.0 |
| 20260509134003 | 55 | 160 | 9.0 | 17.0 | 0.00 | 0.05 | 0.05 | 81 | 1015.3 |
| 20260509133003 | 54 | 172 | 11.0 | 17.0 | 0.00 | 0.05 | 0.05 | 84 | 1015.3 |
| 20260509132003 | 54 | 175 | 8.0 | 14.0 | 0.00 | 0.05 | 0.05 | 83 | 1015.1 |
| 20260509131003 | 54 | 168 | 7.0 | 13.0 | 0.00 | 0.05 | 0.05 | 81 | 1015.4 |
| 20260509130003 | 55 | 176 | 11.0 | 13.0 | 0.00 | 0.05 | 0.05 | 81 | 1015.6 |
| 20260509125003 | 55 | 163 | 8.0 | 12.0 | 0.00 | 0.05 | 0.05 | 81 | 1015.6 |
| 20260509124003 | 55 | 159 | 6.0 | 9.0 | 0.01 | 0.05 | 0.05 | 84 | 1015.1 |
| 20260509123003 | 54 | 102 | 4.0 | 7.0 | 0.02 | 0.05 | 0.05 | 87 | 1015.2 |
| 20260509122003 | 54 | 102 | 5.0 | 7.0 | 0.02 | 0.05 | 0.05 | 92 | 1015.3 |
| 20260509121024 | 52 | 119 | 2.0 | 5.0 | 0.02 | 0.05 | 0.05 | 94 | 1015.4 |
| 20260509120003 | 51 | 126 | 3.0 | 5.0 | 0.03 | 0.05 | 0.05 | 94 | 1015.5 |
| 20260509115003 | 50 | 50 | 2.0 | 3.0 | 0.04 | 0.05 | 0.05 | 95 | 1015.2 |
| 20260509114003 | 49 | 146 | 1.0 | 4.0 | 0.04 | 0.04 | 0.04 | 94 | 1015.6 |
| 20260509113003 | 49 | 73 | 3.0 | 4.0 | 0.03 | 0.04 | 0.04 | 93 | 1015.6 |
| 20260509112003 | 48 | 76 | 3.0 | 5.0 | 0.03 | 0.03 | 0.03 | 92 | 1015.9 |
| 20260509111003 | 48 | 51 | 1.0 | 5.0 | 0.02 | 0.02 | 0.02 | 92 | 1016.0 |
| 20260509110004 | 48 | 135 | 3.0 | 5.0 | 0.02 | 0.02 | 0.02 | 91 | 1015.9 |
| 20260509105003 | 48 | 66 | 2.0 | 6.0 | 0.01 | 0.01 | 0.01 | 90 | 1015.9 |
| 20260509104024 | 48 | 194 | 2.0 | 6.0 | 0.00 | 0.00 | 0.00 | 90 | 1015.7 |
| 20260509103003 | 47 | 182 | 4.0 | 6.0 | 0.00 | 0.00 | 0.00 | 88 | 1015.5 |
| 20260509102024 | 46 | 143 | 2.0 | 4.0 | 0.00 | 0.00 | 0.00 | 87 | 1015.4 |
| 20260509101003 | 46 | 252 | 2.0 | 5.0 | 0.00 | 0.00 | 0.00 | 87 | 1015.2 |
| 20260509100003 | 46 | 175 | 3.0 | 5.0 | 0.00 | 0.00 | 0.00 | 87 | 1015.2 |
| 20260509095003 | 45 | 164 | 3.0 | 5.0 | 0.00 | 0.00 | 0.00 | 86 | 1014.8 |
| 20260509094003 | 45 | 193 | 3.0 | 5.0 | 0.00 | 0.00 | 0.00 | 85 | 1014.8 |
| 20260509093003 | 45 | 159 | 3.0 | 6.0 | 0.00 | 0.00 | 0.00 | 86 | 1014.6 |
| 20260509092003 | 45 | 127 | 2.0 | 6.0 | 0.00 | 0.00 | 0.00 | 86 | 1014.4 |
| 20260509091003 | 45 | 54 | 3.0 | 4.0 | 0.00 | 0.00 | 0.00 | 88 | 1014.4 |
| 20260509090003 | 45 | 21 | 0.0 | 4.0 | 0.00 | 0.00 | 0.00 | 85 | 1014.4 |
| 20260509085003 | 44 | 163 | 3.0 | 4.0 | 0.00 | 0.00 | 0.00 | 86 | 1014.3 |
| 20260509084003 | 44 | 45 | 3.0 | 4.0 | 0.00 | 0.00 | 0.00 | 87 | 1014.3 |
| 20260509083003 | 44 | 34 | 3.0 | 4.0 | 0.00 | 0.00 | 0.00 | 85 | 1014.3 |
| 20260509082003 | 44 | 62 | 1.0 | 4.0 | 0.00 | 0.00 | 0.00 | 83 | 1014.3 |
| 20260509081003 | 44 | 104 | 1.0 | 5.0 | 0.00 | 0.00 | 0.00 | 85 | 1014.5 |
| 20260509080003 | 44 | 44 | 3.0 | 5.0 | 0.00 | 0.00 | 0.00 | 84 | 1014.5 |
| 20260509075003 | 44 | 41 | 3.0 | 4.0 | 0.00 | 0.00 | 0.00 | 83 | 1014.9 |
| 20260509074003 | 44 | 59 | 1.0 | 4.0 | 0.00 | 0.00 | 0.00 | 81 | 1014.7 |
| 20260509073003 | 44 | 81 | 4.0 | 4.0 | 0.00 | 0.00 | 0.00 | 82 | 1014.7 |
| 20260509072003 | 44 | 43 | 3.0 | 4.0 | 0.00 | 0.00 | 0.00 | 83 | 1014.7 |
| 20260509071002 | 44 | 91 | 2.0 | 4.0 | 0.00 | 0.00 | 0.00 | 81 | 1014.7 |
| 20260509070003 | 44 | 72 | 2.0 | 4.0 | 0.00 | 0.00 | 0.00 | 81 | 1014.8 |
| 20260509065003 | 44 | 45 | 3.0 | 5.0 | 0.00 | 0.00 | 0.00 | 81 | 1014.7 |
| 20260509064024 | 44 | 91 | 1.0 | 5.0 | 0.00 | 0.00 | 0.00 | 80 | 1014.7 |
| 20260509063003 | 44 | 115 | 1.0 | 4.0 | 0.00 | 0.00 | 0.00 | 79 | 1014.6 |
| 20260509062003 | 44 | 217 | 4.0 | 4.0 | 0.00 | 0.00 | 0.00 | 79 | 1014.8 |
| 20260509061002 | 44 | 349 | 0.0 | 3.0 | 0.00 | 0.00 | 0.00 | 79 | 1014.6 |
| 20260509060003 | 44 | 304 | 0.0 | 3.0 | 0.00 | 0.00 | 0.00 | 78 | 1014.5 |
| 20260509055025 | 44 | 215 | 1.0 | 3.0 | 0.00 | 0.00 | 0.00 | 77 | 1014.4 |
| 20260509054002 | 44 | 209 | 1.0 | 4.0 | 0.00 | 0.00 | 0.00 | 77 | 1014.6 |
| 20260509053002 | 44 | 59 | 0.0 | 4.0 | 0.00 | 0.00 | 0.00 | 77 | 1014.4 |
| 20260509052003 | 44 | 258 | 4.0 | 4.0 | 0.00 | 0.00 | 0.00 | 76 | 1014.5 |
| 20260509051003 | 44 | 190 | 2.0 | 5.0 | 0.00 | 0.00 | 0.00 | 76 | 1014.5 |
| 20260509050003 | 44 | 301 | 1.0 | 5.0 | 0.00 | 0.00 | 0.00 | 76 | 1014.6 |
| 20260509045003 | 44 | 8 | 2.0 | 5.0 | 0.00 | 0.00 | 0.00 | 75 | 1014.4 |
| 20260509044004 | 45 | 225 | 1.0 | 4.0 | 0.00 | 0.00 | 0.00 | 74 | 1014.5 |
| 20260509043003 | 46 | 228 | 1.0 | 5.0 | 0.00 | 0.00 | 0.00 | 73 | 1014.5 |
| 20260509042025 | 46 | 3 | 3.0 | 5.0 | 0.00 | 0.00 | 0.00 | 74 | 1014.5 |
| 20260509041003 | 46 | 243 | 2.0 | 6.0 | 0.00 | 0.00 | 0.00 | 73 | 1014.4 |
| 20260509040003 | 46 | 222 | 4.0 | 6.0 | 0.00 | 0.00 | 0.00 | 73 | 1014.3 |
| 20260509035003 | 47 | 197 | 2.0 | 6.0 | 0.00 | 0.00 | 0.00 | 72 | 1014.3 |
| 20260509034002 | 47 | 295 | 2.0 | 6.0 | 0.00 | 0.00 | 0.00 | 72 | 1014.0 |
| 20260509033004 | 48 | 207 | 2.0 | 6.0 | 0.00 | 0.00 | 0.00 | 70 | 1014.1 |
| 20260509032003 | 48 | 76 | 2.0 | 7.0 | 0.00 | 0.00 | 0.00 | 71 | 1014.2 |
| 20260509031024 | 48 | 227 | 3.0 | 7.0 | 0.00 | 0.00 | 0.00 | 72 | 1014.1 |
| 20260509030003 | 48 | 236 | 2.0 | 7.0 | 0.00 | 0.00 | 0.00 | 73 | 1014.2 |
| 20260509025024 | 49 | 208 | 4.0 | 6.0 | 0.00 | 0.00 | 0.00 | 74 | 1013.9 |
| 20260509024024 | 49 | 228 | 2.0 | 8.0 | 0.00 | 0.00 | 0.00 | 74 | 1013.6 |
| 20260509023003 | 49 | 222 | 4.0 | 8.0 | 0.00 | 0.00 | 0.00 | 74 | 1013.7 |
| 20260509022003 | 50 | 231 | 5.0 | 8.0 | 0.00 | 0.00 | 0.00 | 73 | 1013.5 |
| 20260509021003 | 50 | 241 | 3.0 | 5.0 | 0.00 | 0.00 | 0.00 | 73 | 1013.4 |
| 20260509020003 | 50 | 264 | 0.0 | 4.0 | 0.00 | 0.00 | 0.00 | 74 | 1013.5 |
| 20260509015004 | 50 | 270 | 0.0 | 5.0 | 0.00 | 0.00 | 0.00 | 74 | 1013.2 |
| 20260509014003 | 50 | 204 | 3.0 | 5.0 | 0.00 | 0.00 | 0.00 | 74 | 1013.2 |
| 20260509013024 | 51 | 217 | 3.0 | 5.0 | 0.00 | 0.00 | 0.00 | 73 | 1013.0 |
| 20260509012003 | 51 | 215 | 4.0 | 6.0 | 0.00 | 0.00 | 0.00 | 72 | 1012.7 |
| 20260509011024 | 51 | 209 | 4.0 | 7.0 | 0.00 | 0.00 | 0.00 | 71 | 1012.6 |
| 20260509010003 | 52 | 208 | 5.0 | 7.0 | 0.00 | 0.00 | 0.00 | 70 | 1012.3 |
| 20260509005003 | 52 | 216 | 5.0 | 6.0 | 0.00 | 0.00 | 0.00 | 69 | 1012.3 |
| 20260509004003 | 52 | 211 | 5.0 | 6.0 | 0.00 | 0.00 | 0.00 | 69 | 1012.1 |
| 20260509003003 | 53 | 214 | 5.0 | 8.0 | 0.00 | 0.00 | 0.00 | 68 | 1012.0 |
| 20260509002003 | 53 | 207 | 5.0 | 8.0 | 0.00 | 0.00 | 0.00 | 67 | 1011.4 |
| 20260509001003 | 54 | 206 | 3.0 | 5.0 | 0.00 | 0.00 | 0.00 | 66 | 1011.2 |
| 20260509000003 | 54 | 197 | 5.0 | 8.0 | 0.00 | 0.00 | 0.00 | 66 | 1011.1 |
| 20260508235003 | 54 | 187 | 5.0 | 8.0 | 0.00 | 0.00 | 0.00 | 66 | 1010.8 |
| 20260508234003 | 55 | 192 | 3.0 | 9.0 | 0.00 | 0.00 | 0.00 | 63 | 1010.8 |
| 20260508233003 | 56 | 182 | 2.0 | 10.0 | 0.00 | 0.00 | 0.00 | 63 | 1010.8 |
| 20260508232003 | 56 | 207 | 5.0 | 10.0 | 0.00 | 0.00 | 0.00 | 62 | 1010.7 |
| 20260508231003 | 56 | 233 | 5.0 | 12.0 | 0.00 | 0.00 | 0.00 | 62 | 1010.6 |
| 20260508230003 | 57 | 212 | 8.0 | 13.0 | 0.00 | 0.00 | 0.00 | 60 | 1010.4 |
| 20260508225003 | 58 | 222 | 5.0 | 13.0 | 0.00 | 0.00 | 0.00 | 58 | 1010.4 |
| 20260508224003 | 58 | 247 | 7.0 | 13.0 | 0.00 | 0.00 | 0.00 | 46 | 1010.2 |
| 20260508223003 | 59 | 246 | 4.0 | 13.0 | 0.00 | 0.00 | 0.00 | 47 | 1010.3 |
| 20260508222003 | 59 | 266 | 4.0 | 17.0 | 0.00 | 0.00 | 0.00 | 47 | 1010.1 |
| 20260508221003 | 59 | 287 | 7.0 | 17.0 | 0.00 | 0.00 | 0.00 | 45 | 1010.1 |
| 20260508220003 | 59 | 326 | 10.0 | 19.0 | 0.00 | 0.00 | 0.00 | 46 | 1010.1 |
| 20260508215003 | 59 | 336 | 12.0 | 19.0 | 0.00 | 0.00 | 0.00 | 45 | 1010.1 |
| 20260508214003 | 60 | 268 | 8.0 | 17.0 | 0.00 | 0.00 | 0.00 | 47 | 1010.0 |
| 20260508213003 | 60 | 245 | 8.0 | 17.0 | 0.00 | 0.00 | 0.00 | 46 | 1009.8 |
| 20260508212003 | 59 | 327 | 9.0 | 18.0 | 0.00 | 0.00 | 0.00 | 46 | 1009.8 |
| 20260508211004 | 59 | 260 | 10.0 | 18.0 | 0.00 | 0.00 | 0.00 | 53 | 1009.9 |
| 20260508210024 | 59 | 287 | 9.0 | 18.0 | 0.00 | 0.00 | 0.00 | 54 | 1009.8 |
| 20260508205003 | 57 | 237 | 7.0 | 17.0 | 0.00 | 0.00 | 0.00 | 60 | 1009.8 |
| 20260508204025 | 57 | 240 | 8.0 | 19.0 | 0.00 | 0.00 | 0.00 | 59 | 1009.9 |
| 20260508203003 | 58 | 238 | 14.0 | 24.0 | 0.00 | 0.00 | 0.00 | 57 | 1009.8 |
| 20260508202003 | 59 | 238 | 14.0 | 31.0 | 0.00 | 0.00 | 0.00 | 54 | 1009.6 |
| 20260508201024 | 60 | 225 | 14.0 | 31.0 | 0.00 | 0.00 | 0.00 | 52 | 1009.2 |
| 20260508200002 | 60 | 241 | 13.0 | 22.0 | 0.00 | 0.00 | 0.00 | 49 | 1009.0 |
| 20260508195003 | 61 | 229 | 7.0 | 17.0 | 0.00 | 0.00 | 0.00 | 53 | 1009.0 |
| 20260508194002 | 61 | 259 | 11.0 | 23.0 | 0.00 | 0.00 | 0.00 | 55 | 1008.8 |
| 20260508193004 | 61 | 211 | 12.0 | 23.0 | 0.00 | 0.00 | 0.00 | 55 | 1008.7 |
| 20260508192003 | 62 | 204 | 12.0 | 21.0 | 0.00 | 0.00 | 0.00 | 53 | 1008.7 |
| 20260508191003 | 63 | 194 | 13.0 | 23.0 | 0.00 | 0.00 | 0.00 | 50 | 1008.5 |
| 20260508190003 | 63 | 206 | 15.0 | 24.0 | 0.00 | 0.00 | 0.00 | 51 | 1008.8 |
| 20260508185003 | 63 | 208 | 14.0 | 28.0 | 0.00 | 0.00 | 0.00 | 51 | 1008.8 |
| 20260508184003 | 63 | 210 | 11.0 | 28.0 | 0.00 | 0.00 | 0.00 | 48 | 1008.6 |
| 20260508183003 | 63 | 208 | 12.0 | 23.0 | 0.00 | 0.00 | 0.00 | 45 | 1008.8 |
| 20260508182003 | 64 | 211 | 11.0 | 23.0 | 0.00 | 0.00 | 0.00 | 49 | 1008.9 |
| 20260508181003 | 65 | 214 | 13.0 | 24.0 | 0.00 | 0.00 | 0.00 | 48 | 1009.1 |
| 20260508180003 | 64 | 220 | 9.0 | 24.0 | 0.00 | 0.00 | 0.00 | 48 | 1009.0 |
| 20260508175024 | 65 | 220 | 13.0 | 23.0 | 0.00 | 0.00 | 0.00 | 43 | 1008.9 |
| 20260508174003 | 66 | 214 | 12.0 | 20.0 | 0.00 | 0.00 | 0.00 | 46 | 1008.8 |
| 20260508173003 | 65 | 212 | 11.0 | 20.0 | 0.00 | 0.00 | 0.00 | 45 | 1009.2 |
| 20260508172024 | 65 | 215 | 13.0 | 20.0 | 0.00 | 0.00 | 0.00 | 44 | 1009.2 |
| 20260508171003 | 65 | 195 | 11.0 | 22.0 | 0.00 | 0.00 | 0.00 | 44 | 1009.1 |
| 20260508170003 | 64 | 211 | 11.0 | 22.0 | 0.00 | 0.00 | 0.00 | 46 | 1009.3 |
| 20260508165003 | 65 | 196 | 12.0 | 20.0 | 0.00 | 0.00 | 0.00 | 42 | 1009.4 |
| 20260508164003 | 66 | 238 | 10.0 | 19.0 | 0.00 | 0.00 | 0.00 | 36 | 1009.5 |
| 20260508163024 | 65 | 255 | 10.0 | 19.0 | 0.00 | 0.00 | 0.00 | 39 | 1009.4 |
| 20260508162003 | 63 | 266 | 10.0 | 15.0 | 0.00 | 0.00 | 0.00 | 38 | 1009.5 |
| 20260508161003 | 63 | 239 | 6.0 | 22.0 | 0.00 | 0.00 | 0.00 | 36 | 1009.9 |
| 20260508160003 | 63 | 239 | 8.0 | 22.0 | 0.00 | 0.00 | 0.00 | 35 | 1010.1 |
| 20260508155003 | 64 | 280 | 14.0 | 20.0 | 0.00 | 0.00 | 0.00 | 33 | 1010.0 |
| 20260508154003 | 65 | 219 | 7.0 | 20.0 | 0.00 | 0.00 | 0.00 | 36 | 1010.0 |
| 20260508153003 | 65 | 260 | 14.0 | 20.0 | 0.00 | 0.00 | 0.00 | 34 | 1010.1 |
| 20260508152003 | 66 | 238 | 6.0 | 15.0 | 0.00 | 0.00 | 0.00 | 38 | 1010.1 |
| 20260508151004 | 65 | 243 | 7.0 | 15.0 | 0.00 | 0.00 | 0.00 | 35 | 1010.2 |
| 20260508150003 | 64 | 267 | 5.0 | 15.0 | 0.00 | 0.00 | 0.00 | 34 | 1010.2 |
| 20260508145003 | 62 | 258 | 8.0 | 15.0 | 0.00 | 0.00 | 0.00 | 39 | 1010.3 |
| 20260508144003 | 63 | 306 | 6.0 | 18.0 | 0.00 | 0.00 | 0.00 | 36 | 1010.3 |
| 20260508143003 | 62 | 293 | 11.0 | 22.0 | 0.00 | 0.00 | 0.00 | 36 | 1010.3 |
| 20260508142003 | 61 | 315 | 11.0 | 22.0 | 0.00 | 0.00 | 0.00 | 34 | 1010.3 |